Location: *
(2.5500°S, 65.9667°W)
Time: 03:12:43
(UTC+00:00)

Explorer 11/Cluster Stage 4 - All Passes

Search period start: 22 April 2024 00:00
Search period end: 02 May 2024 00:00
Orbit: 465 x 1219 km, 28.8° (Epoch: 21 April)

Date Brightness Start Highest point End Pass type
(mag) Time Alt. Az. Time Alt. Az. Time Alt. Az.
22 Apr - 01:13:10 10° WNW 01:15:41 17° NNW 01:18:08 10° NNE visible
22 Apr - 10:18:19 10° NNW 10:23:56 27° NNE 10:30:11 10° E daylight
22 Apr - 12:05:12 10° WNW 12:12:41 86° NNE 12:20:49 10° ESE daylight
22 Apr - 13:54:53 10° W 14:01:52 33° SSW 14:08:50 10° SE daylight
22 Apr - 15:48:37 10° SW 15:51:40 12° SSW 15:54:37 10° S daylight
22 Apr - 21:19:46 10° SSW 21:22:30 14° SSE 21:24:59 10° SE daylight
22 Apr - 23:06:30 10° SW 23:10:56 65° SSE 23:14:43 10° ENE visible
23 Apr - 00:56:20 10° WNW 00:58:34 15° NNW 01:00:43 10° N visible
23 Apr - 10:00:56 10° NNW 10:06:30 28° NNE 10:12:49 10° E visible
23 Apr - 11:47:54 10° WNW 11:55:10 87° SSW 12:03:16 10° ESE daylight
23 Apr - 13:37:40 10° W 13:44:24 31° SSW 13:51:15 10° SSE daylight
23 Apr - 15:31:37 10° SW 15:34:21 12° SSW 15:37:02 10° S daylight
23 Apr - 21:01:49 10° SSW 21:05:22 17° SSE 21:08:29 10° ESE daylight
23 Apr - 22:49:04 10° WSW 22:53:48 78° SSE 22:57:44 10° ENE visible
24 Apr - 00:39:29 10° WNW 00:41:25 13° NNW 00:43:15 10° N visible
24 Apr - 09:43:35 10° NNW 09:49:04 30° NNE 09:55:25 10° E visible
24 Apr - 11:30:37 10° WNW 11:37:40 80° SSW 11:45:41 10° SE daylight
24 Apr - 13:20:30 10° W 13:26:56 28° SSW 13:33:37 10° SSE daylight
24 Apr - 15:14:41 10° SSW 15:17:02 11° SSW 15:19:21 10° S daylight
24 Apr - 20:43:57 10° SSW 20:48:12 21° SSE 20:51:51 10° ESE daylight
24 Apr - 22:31:37 10° WSW 22:36:37 88° NW 22:40:42 10° ENE daylight
25 Apr - 00:22:42 10° NW 00:24:14 12° NNW 00:25:43 10° N visible
25 Apr - 09:26:17 10° NNW 09:31:38 32° NNE 09:37:57 10° E visible
25 Apr - 11:13:23 10° WNW 11:20:10 73° SSW 11:28:03 10° SE daylight
25 Apr - 13:03:23 10° WSW 13:09:29 26° SSW 13:15:55 10° SSE daylight
25 Apr - 14:57:52 10° SSW 14:59:42 11° SSW 15:01:31 10° S daylight
25 Apr - 20:26:06 10° SSW 20:30:59 24° SSE 20:35:06 10° ESE daylight
25 Apr - 22:14:08 10° WSW 22:19:25 77° NNW 22:23:39 10° NE daylight
26 Apr - 00:06:00 10° NW 00:07:02 11° NNW 00:08:02 10° NNW visible
26 Apr - 09:08:59 10° NNW 09:14:13 34° NNE 09:20:28 10° E visible
26 Apr - 10:56:11 10° WNW 11:02:40 66° SSW 11:10:23 10° SE daylight
26 Apr - 12:46:18 10° WSW 12:52:03 24° SSW 12:58:10 10° SSE daylight
26 Apr - 14:41:22 10° SSW 14:42:22 10° SSW 14:43:22 10° S daylight
26 Apr - 18:22:06 10° S 18:24:07 11° SSE 18:26:03 10° SSE daylight
26 Apr - 20:08:16 10° SW 20:13:43 29° SSE 20:18:17 10° E daylight
26 Apr - 21:56:37 10° WSW 22:02:09 67° NNW 22:06:33 10° NE daylight
27 Apr - 08:51:43 10° NNW 08:56:48 37° NNE 09:02:57 10° E visible
27 Apr - 10:39:01 10° WNW 10:45:12 59° SSW 10:52:39 10° SE daylight
27 Apr - 12:29:18 10° WSW 12:34:37 21° SSW 12:40:21 10° SSE daylight
27 Apr - 18:03:41 10° S 18:06:50 13° SSE 18:09:47 10° SE daylight
27 Apr - 19:50:27 10° SW 19:56:26 33° SSE 20:01:22 10° E daylight
27 Apr - 21:39:05 10° WSW 21:44:50 59° NNW 21:49:26 10° NE daylight
28 Apr - 08:34:28 10° NW 08:39:23 40° NNE 08:45:26 10° E visible
28 Apr - 10:21:53 10° WNW 10:27:46 52° SSW 10:34:53 10° SE daylight
28 Apr - 12:12:21 10° WSW 12:17:12 19° SSW 12:22:27 10° SSE daylight
28 Apr - 17:45:31 10° SSW 17:49:30 15° SSE 17:53:11 10° SE daylight
28 Apr - 19:32:38 10° SW 19:39:05 38° SSE 19:44:23 10° E daylight
28 Apr - 21:21:32 10° WSW 21:27:30 53° NNW 21:32:15 10° NE daylight
29 Apr - 08:17:15 10° NW 08:22:00 43° NNE 08:27:53 10° ESE visible
29 Apr - 10:04:47 10° W 10:10:20 46° SSW 10:17:07 10° SE daylight
29 Apr - 11:55:29 10° WSW 11:59:48 17° SSW 12:04:30 10° SSE daylight
29 Apr - 17:27:30 10° SSW 17:32:07 17° SSE 17:36:26 10° SE daylight
29 Apr - 19:14:49 10° SW 19:21:40 44° SSE 19:27:20 10° E daylight
29 Apr - 21:03:57 10° WSW 21:10:06 48° NNW 21:15:03 10° NE daylight
30 Apr - 08:00:02 10° NW 08:04:37 48° NNE 08:10:19 10° ESE visible
30 Apr - 09:47:44 10° W 09:52:56 40° SSW 09:59:18 10° SE visible
30 Apr - 11:38:43 10° SW 11:42:26 15° SSW 11:46:27 10° SSE daylight
30 Apr - 17:09:32 10° SSW 17:14:42 19° SSE 17:19:32 10° ESE daylight
30 Apr - 18:57:01 10° SW 19:04:12 49° SSE 19:10:13 10° ENE daylight
30 Apr - 20:46:21 10° WSW 20:52:40 44° NNW 20:57:48 10° NE daylight
01 May - 07:42:49 10° NW 07:47:15 53° NNE 07:52:45 10° ESE visible
01 May - 09:30:43 10° W 09:35:34 34° SSW 09:41:28 10° SE visible
01 May - 11:22:05 10° SW 11:25:04 13° SSW 11:28:16 10° S daylight
01 May - 16:51:37 10° SSW 16:57:14 21° SSE 17:02:31 10° ESE daylight
01 May - 18:39:12 10° SW 18:46:42 56° SSE 18:53:02 10° ENE daylight
01 May - 20:28:45 10° W 20:35:12 40° NNW 20:40:30 10° NE daylight
